Location: Unspecified
(50.7693°N, 0.0000°E)
Time: 07:17:35
(UTC+00:00)

Transit 2A - Pass Details

Date: 20 August 2020
Orbit: 591 x 967 km, 66.7° (Epoch: 20 September)

Event Time Altitude Azimuth Distance (km) Brightness Sun altitude
Rises 00:19:16 0° 319° (NW) 3,662 10.1 -26.8°
Reaches altitude 10° 00:22:11 10° 329° (NNW) 2,718 9.5 -26.7°
Maximum altitude 00:27:50 32° 31° (NNE) 1,600 8.1 -26.7°
Drops below altitude 10° 00:33:18 10° 93° (E) 2,624 8.8 -26.5°
Sets 00:36:03 0° 103° (ESE) 3,518 9.4 -26.5°
